Home   Weather   Chiclayo   Past weeks

Flag for Peru Past Weather in Chiclayo, Lambayeque, Peru — Yesterday and Last 2 Weeks

Now
68 °F

Clear.


Feels Like: 68 °F
Forecast: 66 / 77 °F
Wind: 20 mph from South

Location: Chiclayo Airport

Current Time: Dec 10, 2016 at 9:10:28 pm

Latest Report: Dec 10, 2016 at 8:00 pm


Visibility: 10 mi

Pressure: 29.92 "Hg

Humidity: 88%

Dew Point: 64 °F

Location of ChiclayoLocation

Past Weather in Chiclayo — Graph

°F

Chiclayo Temperature Yesterday

Maximum temperature yesterday: 79 °F (at 12:00 pm)
Minimum temperature yesterday: 66 °F (at 5:00 am)
Average temperature yesterday: 71 °F

High & Low Weather Summary for the Past Weeks

 TemperatureHumidityPressure
High82 °F (Dec 10, 1:00 pm)100% (Nov 26, 6:00 am)30.01 "Hg (Nov 26, 6:00 am)
Low63 °F (Nov 26, 6:00 am)54% (Dec 2, 2:00 pm)29.77 "Hg (Nov 28, 4:00 pm)
Average71 °F80%29.90 "Hg
* Reported Nov 25 8:00 pm — Dec 10 8:00 pm, Chiclayo, Weather by CustomWeather, © 2016

Note: Actual official high and low records may vary slightly from our data, if they occured in-between our weather recording intervals... More about our weather records

Advertising

Chiclayo Weather History for the Previous 24 Hours

Scroll right to see more
 ConditionsComfort  
Time TempWeatherWind HumidityBarometerVisibility
8:00 pm
Sat, Dec 10
68 °FClear.20 mph88%29.92 "Hg10 mi
7:00 pm70 °FClear.22 mph83%29.89 "Hg10 mi
6:00 pm72 °FSunny.24 mph78%29.86 "Hg10 mi
5:00 pm73 °FSunny.26 mph74%29.86 "Hg10 mi
4:00 pm75 °FSunny.29 mph69%29.86 "Hg10 mi
3:00 pm77 °FSunny.28 mph65%29.86 "Hg10 mi
2:00 pm79 °FSunny.22 mph58%29.89 "Hg10 mi
1:00 pm82 °FSunny.16 mph55%29.92 "Hg10 mi
12:00 pm81 °FSunny.14 mph58%29.95 "Hg10 mi
11:00 am79 °FSunny.15 mph61%29.95 "Hg10 mi
10:00 am77 °FPassing clouds.10 mph65%29.98 "HgN/A
9:00 am73 °FSunny.6 mph74%29.98 "Hg10 mi
8:00 am68 °FSunny.9 mph88%29.98 "Hg10 mi
7:00 am66 °FPartly sunny.13 mph94%29.95 "HgN/A
6:00 am68 °FPartly sunny.12 mph88%29.92 "HgN/A
5:00 am68 °FClear.13 mph88%29.92 "Hg10 mi
4:00 am68 °FClear.7 mph88%29.92 "Hg10 mi
3:00 am68 °FClear.12 mph88%29.92 "Hg10 mi
2:00 am68 °FClear.14 mph88%29.89 "Hg10 mi
1:00 am68 °FOvercast.14 mph88%29.92 "HgN/A
12:00 am70 °FOvercast.17 mph88%29.95 "HgN/A
11:00 pm
Fri, Dec 9
70 °FOvercast.17 mph88%29.98 "HgN/A
10:00 pm68 °FClear.12 mph88%29.98 "Hg10 mi
9:00 pm68 °FClear.18 mph88%29.98 "Hg10 mi
Weather by CustomWeather, © 2016

See weather overviewHow to use our weather pages